Regional Weather Roundup
Issued by NWS

Home | Current Version | Previous Version | Graphics & Text | Print | Product List | Glossary On
Versions: 1 2 3 4 5 6 7 8 9 10 11 12 13 14 15 16 17 18 19 20 21 22 23 24 25 26 27 28 29 30 31 32 33 34 35 36 37 38 39 40 41 42 43 44 45 46 47 48 49 50
000
ASUS44 KMEG 172200
RWRTN
TENNESSEE HOURLY STATE WEATHER ROUNDUP
NATIONAL WEATHER SERVICE MEMPHIS TN
500 PM CDT THU APR 17 2014

TNZ002-004-019-021-049-052-054-088>092-172300-
WEST TENNESSEE

CITY           SKY/WX    TMP DP  RH WIND       PRES   REMARKS
MEMPHIS INTL   CLOUDY    70  40  33 SE9G17    30.19F
NWS MEMPHIS      N/A     70 N/A N/A MISG        N/A
JACKSON        SUNNY     70  37  29 VRB3      30.22F
DYERSBURG      MOSUNNY   66  39  37 E6        30.23F
UNION CITY     SUNNY     66  39  37 S5        30.23F
LEXINGTON      SUNNY     68  34  28 VRB5      30.22F
$$

TNZ008-025-027-028-033-062-065-066-172300-
NORTH MIDDLE TENNESSEE

CITY           SKY/WX    TMP DP  RH WIND       PRES   REMARKS
NASHVILLE      PTSUNNY   68  32  26 SE9       30.27S
CLARKSVILLE    MOSUNNY   68  34  28 VRB5      30.25R
COOKEVILLE     SUNNY     66  34  30 SE6       30.28S
CROSSVILLE     SUNNY     62  26  25 SE9G17    30.30R
$$

TNZ061-075-076-078-094-096-097-172300-
SOUTH MIDDLE TENNESSEE

CITY           SKY/WX    TMP DP  RH WIND       PRES   REMARKS
TULLAHOMA      SUNNY     66  37  34 SW7       30.27F
WINCHESTER     SUNNY     66  37  34 SE9       30.27S
MCMINNVILLE    SUNNY     70  36  28 S5        30.26F
COLUMBIA       SUNNY     68  46  45 SW5       30.24F
$$

TNZ017-018-042-046-047-172300-
NORTHEAST TENNESSEE

CITY           SKY/WX    TMP DP  RH WIND       PRES   REMARKS
TRI CITIES     MOSUNNY   69  25  19 NE6       30.28F
ELIZABETHTON   CLEAR     64  27  24 CALM      30.30F
$$

TNZ012-013-036-069-073-074-172300-
CENTRAL EAST TENNESSEE

CITY           SKY/WX    TMP DP  RH WIND       PRES   REMARKS
KNOXVILLE      MOSUNNY   68  32  26 N7        30.28R
OAK RIDGE      SUNNY     68  29  23 S3        30.31R
$$

TNZ083-085-099-172300-
SOUTHEAST TENNESSEE

CITY           SKY/WX    TMP DP  RH WIND       PRES   REMARKS
CHATTANOOGA    PTSUNNY   68  39  34 S8        30.28F
$$

SKY/WX REPORTED AS FAIR MEANS FEW OR NO CLOUDS BELOW
12 THOUSAND FEET.




USA.gov is the U.S. government's official web portal to all federal, state and local government web resources and services.